Girona, Spain

10:18 PM CEST on July 21, 2017 (GMT +0200)
Girona

Weather History for LEGE - February, 2014

Change the Weather History Date:

Thursday, February 13, 2014

  Actual Average Record
Temperature  
Mean Temperature 52 °F -  
Max Temperature 70 °F 60 °F 74 °F (2016)
Min Temperature 33 °F 37 °F 17 °F (2012)
Degree Days  
Heating Degree Days 14    
Growing Degree Days 2 (Base 50)    
Moisture  
Dew Point 38 °F    
Average Humidity 65    
Maximum Humidity 93    
Minimum Humidity 22    
Precipitation  
Precipitation 0.00 in 0.07 in - ()
Sea Level Pressure  
Sea Level Pressure 29.86 in    
Wind  
Wind Speed 3 mph ()    
Max Wind Speed 17 mph    
Max Gust Speed 22 mph    
Visibility 7.2 miles    
Events      
Averages and records for this station are not official NWS values.
T = Trace of Precipitation, MM = Missing Value Source: Averaged Metar Reports

Daily Weather History Graph

Daily Weather History Graph

Search for Another Location

Airport or City:

Trip Planner

Search our weather history database for the weather conditions in past years. The results will help you decide how hot, cold, wet, or windy it might be!

Date:

Astronomy

Feb. 13, 2014 Rise Set
Actual Time 7:47 AM CET 6:19 PM CET
Civil Twilight 7:18 AM CET 6:47 PM CET
Nautical Twilight 6:46 AM CET 7:20 PM CET
Astronomical Twilight 6:13 AM CET 7:53 PM CET
Moon 5:13 PM CET (2/13) 6:32 AM CET (2/13)
Length of Visible Light 11h 29m
Length of Day
10h 31m
Waxing Gibbous, 98% of the Moon is Illuminated
Feb 13
Waxing Gibbous
Feb 15
Full
Feb 22
Last Quarter
Mar 1
New
Mar 8
First Quarter

Hourly Weather History & Observations

Time (CET) Temp. Windchill Dew Point Humidity Pressure Visibility Wind Dir Wind Speed Gust Speed Precip Events Conditions
12:00 AM 50 °F - 33 °F 39% 29.91 in - North 4.6 mph - -  
12:00 AM 50.0 °F - 32.0 °F 50% 29.92 in - NNW 3.5 mph - N/A   Clear
12:30 AM 50.0 °F - 33.8 °F 54% 29.92 in - Variable 2.3 mph - N/A   Clear
1:00 AM 48 °F - 34 °F 47% 29.91 in 19 mi North 3.5 mph - -  
1:00 AM 48.2 °F - 33.8 °F 58% 29.92 in - Variable 2.3 mph - N/A   Clear
1:30 AM 48.2 °F - 33.8 °F 58% 29.92 in - NNW 3.5 mph - N/A   Clear
2:00 AM 46 °F - 35 °F 54% 29.93 in - NNW 3.5 mph - -  
2:00 AM 46.4 °F - 33.8 °F 62% 29.92 in - Variable 2.3 mph - N/A   Clear
2:30 AM 41.0 °F - 33.8 °F 76% 29.92 in - West 2.3 mph - N/A   Clear
3:00 AM 40 °F - 34 °F 72% 29.94 in - Calm Calm - -  
3:00 AM 39.2 °F - 33.8 °F 81% 29.92 in - Calm Calm - N/A   Clear
3:30 AM 37.4 °F - 33.8 °F 87% 29.92 in - Variable 1.2 mph - N/A   Clear
4:00 AM 38 °F - 33 °F 77% 29.92 in - West 3.5 mph - -  
4:00 AM 39.2 °F - 33.8 °F 81% 29.92 in - West 2.3 mph - N/A   Clear
4:30 AM 37.4 °F - 33.8 °F 87% 29.92 in - West 1.2 mph - N/A   Clear
5:00 AM 36 °F - 32 °F 81% 29.90 in - South 1.2 mph - -  
5:00 AM 35.6 °F - 32.0 °F 87% 29.89 in - Variable 1.2 mph - N/A   Clear
5:30 AM 35.6 °F - 32.0 °F 87% 29.89 in - SSW 1.2 mph - N/A   Clear
6:00 AM 35 °F - 33 °F 91% 29.89 in - West 4.6 mph - -  
6:00 AM 33.8 °F 30.8 °F 32.0 °F 93% 29.89 in - WSW 3.5 mph - N/A   Clear
6:30 AM 35.6 °F - 32.0 °F 87% 29.86 in - Variable 1.2 mph - N/A   Clear
7:00 AM 34 °F - 32 °F 88% 29.88 in 12 mi Calm Calm - -   Partly Cloudy
7:00 AM 33.8 °F - 30.2 °F 87% 29.86 in - Calm Calm - N/A   Clear
7:30 AM 33.8 °F - 32.0 °F 93% 29.86 in - Variable 1.2 mph - N/A   Clear
8:00 AM 35 °F - 33 °F 90% 29.87 in - SSW 2.3 mph - -  
8:00 AM 35.6 °F - 32.0 °F 87% 29.86 in 6.2 mi Variable 1.2 mph - N/A   Partly Cloudy
8:30 AM 35.6 °F - 33.8 °F 93% 29.86 in 6.2 mi Calm Calm - N/A   Partly Cloudy
9:00 AM 38 °F - 35 °F 87% 29.84 in - ESE 2.3 mph - -  
9:00 AM 39.2 °F - 33.8 °F 81% 29.77 in 6.2 mi SE 1.2 mph - N/A   Partly Cloudy
9:30 AM 41.0 °F - 37.4 °F 87% 29.83 in 6.2 mi NE 1.2 mph - N/A   Partly Cloudy
10:00 AM 44 °F - 40 °F 83% 29.83 in 19 mi SSW 1.2 mph - -   Scattered Clouds
10:00 AM 44.6 °F - 39.2 °F 81% 29.83 in 6.2 mi Calm Calm - N/A   Partly Cloudy
10:30 AM 46.4 °F - 41.0 °F 81% 29.80 in 6.2 mi Variable 2.3 mph - N/A   Partly Cloudy
11:00 AM 55 °F - 42 °F 52% 29.79 in - SSE 2.3 mph - -  
11:00 AM 55.4 °F - 42.8 °F 63% 29.80 in 6.2 mi Variable 1.2 mph - N/A   Partly Cloudy
11:30 AM 59.0 °F - 44.6 °F 59% 29.80 in 6.2 mi Variable 2.3 mph - N/A   Partly Cloudy
12:00 PM 63 °F - 44 °F 39% 29.79 in - East 4.6 mph - -  
12:00 PM 62.6 °F - 46.4 °F 55% 29.80 in - Variable 2.3 mph - N/A   Clear
12:30 PM 66.2 °F - 42.8 °F 43% 29.80 in - NNW 2.3 mph - N/A   Clear
1:00 PM 67 °F - 42 °F 29% 29.78 in 22 mi WNW 8.1 mph - -   Scattered Clouds
1:00 PM 66.2 °F - 41.0 °F 40% 29.80 in 6.2 mi WNW 8.1 mph - N/A   Partly Cloudy
1:30 PM 66.2 °F - 41.0 °F 40% 29.80 in 6.2 mi WNW 6.9 mph - N/A   Partly Cloudy
2:00 PM 70 °F - 40 °F 22% 29.76 in - West 3.5 mph - -  
2:00 PM 68.0 °F - 39.2 °F 35% 29.77 in 6.2 mi Variable 3.5 mph - N/A   Partly Cloudy
2:30 PM 68.0 °F - 39.2 °F 35% 29.77 in 6.2 mi NW 3.5 mph - N/A   Partly Cloudy
3:00 PM 70 °F - 40 °F 22% 29.74 in - NNW 6.9 mph - -  
3:00 PM 68.0 °F - 37.4 °F 33% 29.74 in 6.2 mi NNW 6.9 mph - N/A   Partly Cloudy
3:30 PM 68.0 °F - 39.2 °F 35% 29.77 in 6.2 mi WNW 10.4 mph 21.9 mph N/A   Partly Cloudy
4:00 PM 69 °F - 41 °F 25% 29.75 in 22 mi West 17.3 mph - -   Scattered Clouds
4:00 PM 68.0 °F - 41.0 °F 37% 29.77 in 6.2 mi West 16.1 mph - N/A   Partly Cloudy
4:30 PM 68.0 °F - 41.0 °F 37% 29.74 in 6.2 mi WNW 4.6 mph - N/A   Partly Cloudy
5:00 PM 69 °F - 39 °F 22% 29.77 in - WNW 8.1 mph - -  
5:00 PM 68.0 °F - 37.4 °F 33% 29.77 in 6.2 mi WNW 8.1 mph - N/A   Partly Cloudy
5:30 PM 66.2 °F - 39.2 °F 37% 29.80 in 6.2 mi West 11.5 mph - N/A   Partly Cloudy
6:00 PM 64 °F - 42 °F 33% 29.82 in - North 2.3 mph - -  
6:00 PM 64.4 °F - 41.0 °F 42% 29.83 in 6.2 mi Variable 2.3 mph - N/A   Partly Cloudy
6:30 PM 59.0 °F - 42.8 °F 55% 29.89 in 6.2 mi North 6.9 mph - N/A   Partly Cloudy
7:00 PM 55 °F - 45 °F 60% 29.91 in 22 mi East 8.1 mph - -   Scattered Clouds
7:00 PM 55.4 °F - 44.6 °F 67% 29.92 in 6.2 mi ENE 9.2 mph - N/A   Partly Cloudy
7:30 PM 53.6 °F - 44.6 °F 72% 29.92 in 6.2 mi ESE 3.5 mph - N/A   Partly Cloudy
8:00 PM 51.8 °F - 44.6 °F 76% 29.92 in 6.2 mi Calm Calm - N/A   Partly Cloudy
8:30 PM 51.8 °F - 46.4 °F 82% 29.92 in 6.2 mi Variable 2.3 mph - N/A   Partly Cloudy
9:00 PM 50 °F - 45 °F 77% 29.94 in - WSW 3.5 mph - -  
9:00 PM 50.0 °F - 44.6 °F 82% 29.95 in 6.2 mi WSW 3.5 mph - N/A   Partly Cloudy
9:30 PM 48.2 °F - 44.6 °F 87% 29.95 in 6.2 mi Variable 2.3 mph - N/A   Partly Cloudy
10:00 PM 48 °F - 44 °F 81% 29.95 in 9 mi Calm Calm - -   Scattered Clouds
10:00 PM 48.2 °F - 44.6 °F 87% 29.95 in 6.2 mi Calm Calm - N/A   Partly Cloudy
10:30 PM 48.2 °F - 44.6 °F 87% 29.95 in 6.2 mi WSW 3.5 mph - N/A   Partly Cloudy
11:00 PM 46 °F - 44 °F 89% 29.96 in - Calm Calm - -  
11:00 PM 46.4 °F - 42.8 °F 87% 29.95 in 6.2 mi Calm Calm - N/A   Partly Cloudy
11:30 PM 48.2 °F - 44.6 °F 87% 29.98 in 6.2 mi Variable 2.3 mph - N/A   Scattered Clouds